Location: Bothwell
(42.3833°S, 147.0000°E)
Time: 15:09:24
(UTC+11:00)

HuskySat-1 - Pass Details

Date: 11 October 2022
Orbit: 362 x 377 km, 51.6° (Epoch: 03 December)

Event Time Altitude Azimuth Distance (km) Brightness Sun altitude
Exits shadow 05:54:59 - 257° (WSW) 1,618 ? -7.0°
Reaches altitude 10° 05:55:42 10° 249° (WSW) 1,377 ? -6.9°
Maximum altitude 05:58:09 21° 197° (SSW) 908 ? -6.4°
Drops below altitude 10° 06:00:36 10° 144° (SE) 1,388 ? -6.0°
Sets 06:02:58 0° 127° (SE) 2,247 ? -5.6°
